Location: Blauforlaet
(53.2257°N, 6.1798°E)
Time: 00:44:16
(UTC+00:00)

Daily predictions for brighter satellites

Satellite Brightness Start Highest point End
(mag) Time Altitude Azimuth Time Altitude Azimuth Time Altitude Azimuth
Cosmos 2333 Rocket 4.4 02:51:54 20° NE 02:51:54 20° NE 02:55:05 10° ENE
Cosmos 2360 Rocket 4.5 02:58:26 17° NE 02:58:26 17° NE 03:01:26 10° ENE
USA 234 4.0 03:05:52 10° ENE 03:10:26 48° ENE 03:10:26 48° ENE
Cosmos 2219 Rocket 4.4 03:16:26 17° NNE 03:16:26 17° NNE 03:20:02 10° ENE
Cosmos 2322 Rocket 4.1 03:19:55 22° NNE 03:20:05 22° NNE 03:24:30 10° E
USA 59 Rocket 2.9 03:34:44 12° ESE 03:34:44 12° ESE 03:35:06 10° ESE
NOSS 3-1 (C) 4.0 03:34:05 68° NE 03:34:05 68° NE 03:42:18 10° ESE
CZ-2C R/B 4.4 03:35:04 10° NNE 03:36:58 22° NNE 03:36:58 22° NNE
Cosmos 1833 Rocket 4.0 03:46:20 33° NNE 03:46:20 33° NNE 03:49:20 10° NNE
ACS3 Solar Sail 3.8 03:39:12 10° N 03:40:27 17° N 03:40:27 17° N
SL-16 R/B 3.3 03:46:48 37° NNE 03:47:21 38° NE 03:52:38 10° ESE
Cosmos 2082 Rocket 3.6 03:49:32 21° SSE 03:52:28 35° ESE 03:57:32 10° NE
COSMOS 2455 3.1 03:58:09 63° SE 03:58:09 63° SE 04:03:08 10° SE
ATLAS 3B R/B 3.8 03:59:03 37° NNW 04:00:21 39° N 04:07:36 10° ENE
NOSS 3-4 (A) 3.7 04:02:31 53° NNE 04:02:31 53° NNE 04:07:23 10° NE
Cosmos 1898 Rocket 4.1 04:02:27 53° ESE 04:02:27 53° ESE 04:06:34 10° SE
NOSS 3-4 (C) 3.7 04:02:40 53° NNE 04:02:40 53° NNE 04:07:33 10° NE
Cosmos 1980 Rocket 3.8 04:14:13 22° S 04:14:13 22° S 04:16:08 10° S
Cosmos 468 Rocket 4.4 04:10:58 57° SE 04:11:30 60° ESE 04:16:38 10° NNE
Cosmos 2369 3.9 04:16:15 61° S 04:16:15 61° S 04:20:56 10° SSE
Aureole 1 Rocket 4.1 04:20:44 63° WNW 04:21:46 73° WSW 04:29:12 10° SSE
ADEOS Rocket 4.2 04:14:58 10° N 04:20:29 38° NNW 04:20:29 38° NNW
Cosmos 1763 Rocket 4.1 04:23:56 44° N 04:23:56 44° N 04:27:35 10° NNE
COSMO-SKYMED 1 3.4 04:18:50 10° SE 04:22:46 46° ENE 04:22:50 46° ENE
SL-16 R/B 4.3 04:24:28 13° N 04:24:28 13° N 04:27:00 10° NNE
Cosmos 2180 Rocket 4.3 04:23:51 61° NW 04:24:55 76° W 04:31:13 10° S
SKYMED 2 4.2 04:20:41 10° SSE 04:24:01 51° SE 04:24:01 51° SE
Cosmos 1937 Rocket 3.4 04:25:55 78° NE 04:26:05 79° ENE 04:31:13 10° SSE
Cosmos 909 Rocket 4.3 04:28:18 57° WNW 04:29:04 60° NW 04:35:33 10° NE
Cosmos 1346 Rocket 4.3 04:33:27 27° NE 04:33:27 27° NE 04:35:24 10° NNE
Celestis-02/Orion 38 4.4 04:29:24 10° NNE 04:34:29 88° ESE 04:35:18 65° SSW
Cosmos 2333 Rocket 2.7 04:33:56 33° NNW 04:36:23 58° NE 04:42:04 10° SE
ARGOS 4.4 04:34:46 10° N 04:37:25 27° N 04:37:25 27° N
NOSS 3-1 (A) 3.9 04:37:46 40° NW 04:40:35 77° NE 04:49:04 10° SE
Cosmos 1606 Rocket 4.0 04:43:12 52° S 04:43:12 52° S 04:46:33 10° S
Cosmos 2360 Rocket 3.0 04:40:11 26° NNW 04:43:07 47° NE 04:48:31 10° ESE
Cosmos 2237 Rocket 4.3 04:47:53 12° N 04:50:25 16° NNE 04:53:45 10° NE
USA 234 3.4 04:48:45 10° E 04:55:15 65° N 04:57:47 39° WNW
Cosmos 540 Rocket 3.8 04:56:48 44° NNW 04:56:48 44° NNW 05:01:07 10° NNE
Helios 1A Rocket 3.5 04:53:37 10° SSE 04:55:47 38° SSE 04:55:47 38° SSE
SeaSat 1 3.5 04:55:06 10° NNE 04:58:20 28° NNW 04:58:20 28° NNW
Cosmos 2219 Rocket 3.2 04:58:08 18° NNW 05:01:57 42° NE 05:07:18 10° ESE
SL-4 R/B 2.0 05:03:15 54° SE 05:03:15 54° SE 05:05:56 10° ESE
ATLAS 5 CENTAUR R/B 2.6 05:05:55 23° NNE 05:05:55 23° NNE 05:07:50 10° NE
RESURS DK-1 4.1 05:06:48 20° N 05:06:48 20° N 05:08:29 10° NNE
Cosmos 2322 Rocket 2.4 05:01:44 24° NNW 05:05:12 69° NE 05:10:52 10° SE
Meteor 1-26 Rocket 4.3 05:02:56 10° NNW 05:08:27 77° ENE 05:14:05 10° SSE
Cosmos 1726 Rocket 3.4 05:08:06 56° WNW 05:08:34 60° W 05:12:46 10° S
Meteor 2-3 Rocket 3.8 05:06:34 10° S 05:12:18 83° E 05:18:01 10° NNE
Cosmos 1092 Rocket 4.3 05:06:10 10° S 05:12:23 69° E 05:18:35 10° NNE
CZ-4 R/B 3.6 05:09:23 10° NNE 05:14:04 81° WNW 05:18:41 10° SSW
Cosmos 489 Rocket 4.4 05:10:07 10° SSW 05:16:26 89° WNW 05:22:45 10° NNE
Nadezhda 4 Rocket 3.9 05:11:09 10° SSW 05:17:24 64° WNW 05:23:39 10° N
CZ-2C R/B 3.8 05:13:32 10° N 05:16:11 23° NNW 05:16:11 23° NNW
Cosmos 1428 Rocket 4.4 05:12:16 10° SSW 05:18:28 73° WNW 05:24:48 10° N
USA 59 Rocket 1.5 05:20:26 20° SW 05:20:26 20° SW 05:23:06 10° S
Cosmos 2221 4.1 05:20:09 10° N 05:23:55 32° ENE 05:27:39 10° SE
Cosmos 841 Rocket 3.4 05:19:07 10° SSW 05:24:22 76° WNW 05:29:39 10° NNE
NOSS 3-1 (C) 4.3 05:21:26 29° WNW 05:24:52 47° SW 05:33:03 10° SSE
COSMOS 2406 3.2 05:19:14 10° SSW 05:24:54 85° ESE 05:30:38 10° NNE
ACS3 Solar Sail 3.7 05:23:49 10° NNW 05:24:28 11° NNW 05:24:28 11° NNW
Cosmos 1833 Rocket 3.8 05:28:01 24° NW 05:28:27 24° NW 05:33:01 10° NNE
COSMOS 2428 4.1 05:25:55 12° NNW 05:30:39 32° NE 05:35:43 10° ESE
Cosmos 1892 Rocket 3.4 05:26:51 10° SSW 05:31:12 72° WNW 05:35:38 10° N
SL-16 R/B 2.3 05:28:40 26° NW 05:31:41 54° WSW 05:37:11 10° S
Cosmos 2195 Rocket 4.4 05:25:33 10° SSW 05:31:48 72° WNW 05:38:10 10° N
Cosmos 2082 Rocket 2.3 05:31:29 13° SW 05:36:22 53° NW 05:41:54 10° NNE
IRS-1D 3.7 05:36:23 10° N 05:41:08 47° WNW 05:45:57 10° SW
Cosmos 1125 Rocket 4.3 05:36:02 10° NNW 05:41:11 50° ENE 05:46:16 10° SE
COSMOS 2455 3.9 05:41:19 22° W 05:42:20 23° WSW 05:46:55 10° SSW
NOSS 8 (A) 3.9 05:45:58 41° WNW 05:46:49 73° SW 05:49:55 10° SE
Orbus 7S? 2.6 05:47:32 38° W 05:48:17 57° SSW 05:50:57 10° SE
Cosmos 405 Rocket 3.3 05:46:39 10° S 05:49:48 48° E 05:53:00 10° NNE
ATLAS 3B R/B 3.4 05:46:18 16° NW 05:52:40 57° NNE 06:00:13 10° ESE
Cosmos-2242 3.2 05:49:31 14° NNW 05:52:55 46° W 05:56:57 10° SSW
NOSS 3-4 (A) 4.2 05:49:57 21° WNW 05:53:03 35° N 05:59:01 10° NE
NOSS 3-4 (C) 4.2 05:50:06 21° WNW 05:53:13 35° N 05:59:10 10° NE
Cosmos 2278 4.1 05:51:02 19° NW 05:54:43 43° WSW 06:00:00 10° S
Cosmos 1812 Rocket 4.0 05:51:53 10° N 05:56:11 63° ENE 06:00:27 10° SSE
Cosmos 1707 3.8 05:53:58 10° N 05:56:55 35° ENE 05:59:50 10° SE
Cosmos 1437 Rocket 3.5 05:54:15 10° N 05:57:36 44° ENE 06:00:55 10° SE
COSMO-SKYMED 1 3.6 05:55:00 10° SSW 05:58:18 23° W 05:59:09 22° WNW
Cosmos 1484 Rocket 2.5 05:56:33 10° N 05:59:55 55° WNW 06:03:15 10° SSW
Cosmos 2058 Rocket 3.5 05:56:18 12° NNW 06:00:01 39° W 06:04:07 10° SSW
Okean 1 3.7 06:03:39 17° NW 06:05:50 34° W 06:09:04 10° SSW
Cosmos 1602 Rocket 4.5 06:01:46 10° S 06:06:05 53° E 06:10:26 10° NNE
Cosmos 1346 Rocket 4.1 06:07:59 18° NW 06:07:59 18° NW 06:10:02 10° NNW
CORIOLIS 4.4 06:05:12 10° NNE 06:10:36 76° ESE 06:16:01 10° S
SL-16 R/B 4.2 06:07:19 10° NNW 06:10:59 17° NNE 06:14:39 10° ENE
ARIANE 5 R/B 3.3 06:06:48 10° NNE 06:11:57 59° ESE 06:17:06 10° S
Cosmos 2285 Rocket 4.1 06:06:25 10° NNW 06:12:41 61° WSW 06:18:57 10° S
ATLAS 2AS CENTAUR R/B 4.3 06:10:09 10° S 06:16:31 39° ESE 06:22:47 10° NE
SL-08 ROCKET BODY 4.3 06:11:54 10° SSW 06:17:44 83° W 06:23:37 10° N
SL-08 R/B 3.7 06:14:27 10° SSE 06:18:59 64° ENE 06:23:39 10° N
IRIDIUM 104 4.3 06:14:22 10° SSW 06:19:33 63° W 06:24:46 10° N
Cosmos 2333 Rocket 3.0 06:15:59 13° NW 06:20:26 33° WSW 06:25:30 10° S
Meteor 1-10 Rocket 4.4 06:14:44 10° NNW 06:20:39 83° ENE 06:26:36 10° SSE
SAR-Lupe-4 3.8 06:18:45 10° NNE 06:22:19 75° ESE 06:25:52 10° S
SMAP 3.0 06:18:33 10° NNE 06:23:15 83° WNW 06:27:54 10° SSW
Cosmos 2360 Rocket 2.7 06:21:57 11° NW 06:27:04 41° WSW 06:32:16 10° S
Cosmos 2315 Rocket 4.3 06:21:36 10° N 06:28:01 77° ENE 06:34:21 10° SSE
IRIDIUM 114 4.5 06:23:37 10° SSW 06:28:44 54° W 06:33:52 10° N
Landsat 7 3.8 06:24:30 10° NNE 06:29:12 87° WNW 06:33:52 10° SSW
Meteor 1-19 Rocket 4.3 06:23:34 10° NNW 06:29:20 82° W 06:35:13 10° S
SAR-Lupe-1 4.2 06:26:30 10° NNE 06:30:08 79° ESE 06:33:45 10° SSW
CBERS-1 4.1 06:26:52 10° N 06:31:51 53° WNW 06:36:46 10° SW
IGS 5A 3.9 06:29:04 10° N 06:32:44 35° WNW 06:36:24 10° SW
Cosmos 1814 Rocket 4.0 06:30:20 10° SSW 06:35:34 73° WNW 06:40:54 10° NNE
SeaSat 1 4.3 06:33:30 10° N 06:35:34 13° NNW 06:37:39 10° NW
Cosmos 2237 Rocket 3.3 06:30:55 10° NNW 06:36:09 38° NE 06:41:22 10° ESE
BREEZE-M DEB (TANK) 4.2 06:35:25 10° SW 06:36:25 13° SSW 06:37:37 10° SSE
USA 234 3.3 06:31:33 10° ESE 06:38:08 89° NNE 06:44:45 10° WNW
SL-4 R/B 2.7 06:37:10 10° W 06:40:03 30° SSW 06:42:53 10° SE
Cosmos 1825 Rocket 4.3 06:35:57 10° S 06:40:17 59° E 06:44:39 10° NNE
IRS-1C 4.2 06:35:47 10° NNE 06:41:09 89° W 06:46:29 10° SSW
Cosmos 1758 Rocket 3.8 06:37:31 10° SSW 06:41:49 50° WNW 06:46:07 10° N
Cosmos 1733 2.9 06:41:08 10° WSW 06:42:33 18° WNW 06:43:59 10° NNW
Cosmos 1743 2.4 06:39:38 10° SSW 06:42:48 51° WNW 06:46:01 10° N
Thor Agena Rocket 3.5 06:39:23 10° N 06:44:22 58° WNW 06:49:18 10° SW
Cosmos 2219 Rocket 2.6 06:40:34 10° NW 06:45:59 47° WSW 06:51:20 10° S
BREEZE-M DEB (TANK) 4.0 06:43:34 10° WSW 06:46:34 57° S 06:55:21 10° E
CZ-2D R/B 4.4 06:42:55 10° NNE 06:46:51 50° E 06:50:40 10° S
ATLAS 5 CENTAUR R/B 2.9 06:45:39 10° NW 06:48:05 17° N 06:50:47 10° NE
Cosmos 2322 Rocket 3.3 06:44:06 10° NW 06:48:47 27° WSW 06:53:26 10° SSW
S3M 4.0 06:43:13 10° NNW 06:49:22 65° W 06:55:25 10° S
Cosmos 2322 3.8 06:49:16 10° NNW 06:54:57 85° WSW 07:00:37 10° SSE
USA 229 4.1 06:47:48 10° NW 06:55:05 90° ENE 07:03:11 10° SE
USA 229 DEB 4.1 06:47:54 10° NW 06:55:10 90° NE 07:03:15 10° SE
